This is the latest recevied weather packets stored in our database for station/object K5BOU. If no packets are shown the sender has not sent any weather packets the latest 10 day(s).
| Time | Temp. | Humidity | Pressure | Rain* | Wind** | Luminosity | Snow |
|---|---|---|---|---|---|---|---|
| 1788472061 | 26.11° C | 99% | 1010.9 hPa | 0 mm | - | 65 W/m² | - |
| 1788471758 | 26.11° C | 99% | 1011.3 hPa | 1.78 mm | - | 63 W/m² | - |
| 1788471452 | 25.56° C | 99% | 1011.4 hPa | 1.78 mm | - | 65 W/m² | - |
| 1788471148 | 26.11° C | 99% | 1011.3 hPa | 1.27 mm | - | 65 W/m² | - |
| 1788470844 | 26.11° C | 99% | 1011.5 hPa | 4.32 mm | - | 58 W/m² | - |
| 1788470541 | 25.56° C | 99% | 1011.6 hPa | 6.1 mm | - | 52 W/m² | - |
| 1788470239 | 25.56° C | 99% | 1011.5 hPa | 6.1 mm | - | 46 W/m² | - |
| 1788469936 | 25.56° C | 99% | 1011.8 hPa | 4.83 mm | - | 39 W/m² | - |
| 1788469632 | 25.56° C | 99% | 1011.5 hPa | 3.05 mm | - | 35 W/m² | - |
| 1788469328 | 25.56° C | 99% | 1011.6 hPa | 1.27 mm | - | 35 W/m² | - |
| 1788469027 | 25.56° C | 99% | 1011.9 hPa | 1.78 mm | - | 35 W/m² | - |
| 1788468726 | 25.56° C | 99% | 1011.6 hPa | 1.78 mm | - | 38 W/m² | - |
| 1788468422 | 25.56° C | 99% | 1011.8 hPa | 1.27 mm | - | 40 W/m² | - |
| 1788468118 | 25.56° C | 99% | 1011.5 hPa | 3.05 mm | - | 42 W/m² | - |
| 1788467813 | 25.56° C | 99% | 1011.5 hPa | 3.05 mm | - | 42 W/m² | - |
| 1788467508 | 25.56° C | 99% | 1011.7 hPa | 4.32 mm | - | 42 W/m² | - |
| 1788467203 | 25.56° C | 99% | 1011.9 hPa | 1.27 mm | - | 40 W/m² | - |
| 1788466898 | 25.56° C | 99% | 1012 hPa | 0 mm | - | 36 W/m² | - |
| 1788466592 | 25.56° C | 99% | 1012 hPa | 0 mm | - | 36 W/m² | - |
| 1788466292 | 25.56° C | 99% | 1012 hPa | 0 mm | - | 35 W/m² | - |
| 1788465987 | 25.56° C | 98% | 1012.1 hPa | 0 mm | - | 35 W/m² | - |
| 1788465682 | 26.11° C | 97% | 1012 hPa | 0 mm | - | 35 W/m² | - |
| 1788465378 | 26.11° C | 96% | 1012 hPa | 0 mm | - | 33 W/m² | - |
| 1788465074 | 26.11° C | 96% | 1011.8 hPa | 0 mm | - | 34 W/m² | - |
| 1788464769 | 26.11° C | 95% | 1011.9 hPa | 0 mm | - | 36 W/m² | - |
* Rain latest hour (hover to see other rain measurements)
** Current wind speed in m/s (hover to see current wind gust speed)